Flag for U.S.A. Weather past 2 weeks in Oklahoma City, Oklahoma, U.S.A.

Now
42 °F

Overcast.


Feels Like: 38 °F
Forecast: 42 / 45 °F
Wind: 7 mph from Southeast

Location: Will Rogers World Airport

Current Time: Jan 31, 2015 at 5:10:35 AM

Latest Report: Jan 31, 2015 at 3:52 AM


Visibility: 10 mi

Pressure: 30.22 "Hg

Humidity: 60%

Dew point: 29 °F

Location of Oklahoma CityLocation

Historic Weather in Oklahoma City — Graph

°F

Oklahoma City temperature yesterday

Maximum temperature yesterday: 48 °F (at 2:52 PM)
Minimum temperature yesterday: 35 °F (at 4:52 AM)
Average temperature yesterday: 42 °F

Past Weeks' High & Low Weather Summary

 TemperatureHumidityPressure
High79 °F (Jan 28, 3:52 PM)89% (Jan 22, 4:52 AM)30.54 "Hg (Jan 22, 4:52 AM)
Low28 °F (Jan 26, 6:52 AM)9% (Jan 19, 3:52 PM)29.83 "Hg (Jan 17, 5:52 AM)
Average48 °F50%30.14 "Hg
* Reported Jan 16 3:52 AM — Jan 31 3:52 AM, Oklahoma City, Weather by CustomWeather, © 2014

Note: Actual official high and low records may vary slightly from our data, if they occured in-between our weather recording intervals... More about our weather records

Advertising

Oklahoma City weather history for previous 24 hours

 ConditionsComfort  
Time TempWeatherWind HumidityBarometerVisibility
3:52 AM
Jan 31
42 °FOvercast.7 mph60%30.22 "Hg10 mi
2:52 AM43 °FPassing clouds.5 mph56%30.23 "Hg10 mi
1:52 AM44 °FMostly cloudy.10 mph51%30.22 "Hg10 mi
12:52 AM44 °FOvercast.10 mph49%30.25 "Hg10 mi
11:52 PM
Jan 30
44 °FOvercast.10 mph49%30.28 "Hg10 mi
10:52 PM44 °FOvercast.7 mph47%30.31 "Hg10 mi
9:52 PM44 °FOvercast.7 mph45%30.33 "Hg10 mi
8:52 PM44 °FOvercast.10 mph45%30.34 "Hg10 mi
7:52 PM44 °FMostly cloudy.7 mph45%30.37 "Hg10 mi
6:52 PM45 °FMostly cloudy.5 mph44%30.38 "Hg10 mi
5:52 PM46 °FOvercast.8 mph40%30.37 "Hg10 mi
4:52 PM47 °FOvercast.7 mph39%30.38 "Hg10 mi
3:52 PM48 °FCloudy.8 mph39%30.39 "Hg10 mi
2:52 PM48 °FMostly cloudy.5 mph34%30.40 "Hg10 mi
1:52 PM47 °FPartly sunny.5 mph37%30.41 "Hg10 mi
12:52 PM47 °FBroken clouds.8 mph39%30.45 "Hg10 mi
11:52 AM44 °FBroken clouds.7 mph43%30.49 "Hg10 mi
10:52 AM41 °FPartly sunny.7 mph53%30.53 "Hg10 mi
9:52 AM39 °FMostly cloudy.8 mph60%30.54 "Hg10 mi
8:52 AM38 °FPartly sunny.6 mph65%30.54 "Hg10 mi
7:52 AM36 °FPartly sunny.3 mph67%30.54 "Hg10 mi
6:52 AM36 °FPassing clouds.6 mph67%30.53 "Hg10 mi
5:52 AM36 °FPassing clouds.No wind67%30.52 "Hg10 mi
Weather by CustomWeather, © 2014

See weather overviewHow to use our weather pages